Regional Weather Roundup
Issued by NWS

Home | Current Version | Previous Version | Graphics & Text | Print | Product List | Glossary Off
Versions: 1 2 3 4 5 6 7 8 9 10 11 12 13 14 15 16 17 18 19 20 21 22 23 24 25 26 27 28 29 30 31 32 33 34 35 36 37 38 39 40 41 42 43 44 45 46 47 48 49 50

000
ASUS43 KIND 161909
RWRIN

WEATHER ROUNDUP FOR INDIANA
NATIONAL WEATHER SERVICE INDIANAPOLIS IN
300 PM EDT WED APR 16 2014

NOTE: "FAIR" INDICATES FEW OR NO CLOUDS BELOW 12,000 FEET WITH NO
SIGNIFICANT WEATHER AND/OR OBSTRUCTIONS TO VISIBILITY.

* - STATION DOES NOT REPORT WEATHER SUCH AS PRECIPITATION OR FOG.

+ - STATION NOT QUALITY CONTROLLED BY THE NATIONAL WEATHER SERVICE.
    USE DATA WITH CAUTION...ESPECIALLY DEWPOINT AND RELATIVE
    HUMIDITY OBSERVATIONS.

INZ001>003-010>013-019-020-162000-
NORTHWEST INDIANA

CITY           SKY/WX    TMP DP  RH WIND       PRES   REMARKS
GARY /AIRPORT/ PTSUNNY   48  23  37 S16G32    30.26F
LA PORTE +     MOSUNNY   46  20  36 S13G22    30.29F
MICHIGAN CITY+ MOSUNNY   48  18  29 SE14G23   30.27F
MONTICELLO +   SUNNY     46  24  42 SE9G21    30.29F
RENSSELAER +   SUNNY     48  21  34 SE14G25   30.28F
VALPARAISO     SUNNY     47  19  33 SE20G26   30.27F

$$

LMZ046-743>745-162000-
SOUTHERN LAKE MICHIGAN

STATION/POSITION TIME  TEMP WIND        PRES
                       AIR  DIR/SP/G
                 (UTC) (F)  (DEG/KT/KT) (MB)
MICHIGAN CITY    1900   45  130/ 15/ 21   N/A

$$

INZ004-005-014>016-021>024-162000-
NORTH CENTRAL INDIANA

CITY           SKY/WX    TMP DP  RH WIND       PRES   REMARKS
GOSHEN         SUNNY     47  19  33 S15G25    30.32F
LOGANSPORT +   SUNNY     46  21  36 SE15G25   30.32F
PERU/GRISSOM   SUNNY     48  23  38 SE16G23   30.31F
ROCHESTER +    SUNNY     48  21  34 S14G23    30.32F
SOUTH BEND     MOSUNNY   48  19  31 SE18      30.31F
WARSAW +       SUNNY     45  21  39 SE14G20   30.33F

$$

INZ006>009-017-018-025>027-162000-
NORTHEAST INDIANA

CITY           SKY/WX    TMP DP  RH WIND       PRES   REMARKS
ANGOLA *+      SUNNY     43  21  42 S14       30.34F
AUBURN +       SUNNY     43  19  39 SE9       30.36F
FORT WAYNE     PTSUNNY   45  20  36 SE14      30.36F

$$

INZ028-029-035-036-043>045-051>053-162000-
WEST CENTRAL INDIANA

CITY           SKY/WX    TMP DP  RH WIND       PRES   REMARKS
GREENCASTLE +  SUNNY     48  25  40 SE9G20    30.30F
LAFAYETTE      SUNNY     48  21  34 SE16G26   30.29F
TERRE HAUTE    MOSUNNY   50  26  39 S13       30.28F

$$

INZ030>032-037>040-046>048-054>057-064-065-162000-
CENTRAL INDIANA

CITY           SKY/WX    TMP DP  RH WIND       PRES   REMARKS
ANDERSON       SUNNY     46  19  34 SE17G23   30.35F
CP ATTERBURY + MOSUNNY   46  21  36 SE14      30.33F
COLUMBUS       SUNNY     46  19  34 SE16      30.34F
INDIANAPOLIS   MOSUNNY   46  22  38 SE15G22   30.32F
-EAGLE CREEK   SUNNY     46  21  37 SE13G22   30.31F
KOKOMO *+      SUNNY     46  25  42 SE20      30.31F
MARION +       SUNNY     45  20  36 SE15G22   30.34F HAZE
MT COMFORT *+  SUNNY     46  23  39 SE12G20   30.33F
SHELBYVILLE    SUNNY     49  22  34 SE12G21   30.33F
ZIONSVILLE +   SUNNY     47  21  34 SE12G20   30.31F

$$

INZ033-034-041-042-049-050-058-059-162000-
EAST CENTRAL INDIANA

CITY           SKY/WX    TMP DP  RH WIND       PRES   REMARKS
MUNCIE         SUNNY     46  21  37 SE14G22   30.33F

$$

INZ060-061-067>069-081>083-085>088-162000-
SOUTHWEST INDIANA

CITY           SKY/WX    TMP DP  RH WIND       PRES   REMARKS
EVANSVILLE     SUNNY     51  28  41 S9        30.29F
HUNTINGBURG *+ SUNNY     52  27  37 SE14G21   30.30F
WASHINGTON +   SUNNY     50  28  43 E7        30.29F

$$

INZ062-063-066-070>080-084-089>092-162000-
SOUTH CENTRAL AND SOUTHEAST INDIANA

CITY           SKY/WX    TMP DP  RH WIND       PRES   REMARKS
BLOOMINGTON    SUNNY     48  22  35 SE12G20   30.30F

$$




USA.gov is the U.S. government's official web portal to all federal, state and local government web resources and services.